Regional Weather Roundup
Issued by NWS Northern Indiana

Home | Current Version | Previous Version | Graphics & Text | Print | Product List | Glossary On
Versions: 1 2 3 4 5 6 7 8 9 10 11 12 13 14 15 16 17 18 19 20 21 22 23 24 25 26 27 28 29 30 31 32 33 34 35 36 37 38 39 40 41 42 43 44 45 46 47 48 49 50
000
ASUS43 KIWX 300310
RWRIWX

KIWX WEATHER ROUNDUP
NATIONAL WEATHER SERVICE NORTHERN INDIANA
1100 PM EDT MON SEP 29 2014

NOTE: "FAIR" INDICATES FEW OR NO CLOUDS BELOW 12,000 FEET WITH NO
SIGNIFICANT WEATHER AND/OR OBSTRUCTIONS TO VISIBILITY.

* THESE STATIONS ARE NOT UNDER NWS QUALITY CONTROL. THEY ALSO MAY NOT
  REPORT WEATHER SUCH AS PRECIPITATION OR FOG.

INZ001>027-300400-
NORTHERN INDIANA

CITY           SKY/WX    TMP DP  RH WIND       PRES   REMARKS
GARY*          CLOUDY    60  56  85 N16       30.02R
VALPARAISO     CLOUDY    60  56  86 N10       29.98R
MICHIGAN CITY* CLOUDY    57  55  94 N10G18    30.00R
LAPORTE*       CLOUDY    60  59  96 N10G18    29.98S
KNOX*          CLOUDY    61  57  88 N12       29.96R
SOUTH BEND     CLOUDY    60  56  86 N13       29.97S
MONTICELLO*    CLEAR     60  58  94 CALM      29.93S
LOGANSPORT*    CLEAR     59  54  82 S5        29.94S
ROCHESTER*     PTCLDY    64  63  94 CALM      29.93S
WARSAW*        PTCLDY    59  57  94 CALM      29.92F
ANGOLA*        CLEAR     59  57  94 CALM      29.93S
FORT WAYNE     CLEAR     60  55  83 CALM      29.94S
HUNTINGTON*    CLEAR     59  58  97 CALM      29.93F
PERU/GRISSOM   CLEAR     62  60  96 S3        29.93F
MARION*        CLEAR     58  53  84 CALM      29.95S

$$
INZ028>050-300400-
CENTRAL INDIANA

CITY           SKY/WX    TMP DP  RH WIND       PRES   REMARKS
LAFAYETTE      CLEAR     61  58  90 CALM      29.93S
KOKOMO*        CLEAR     59  52  77 CALM      29.95S
MUNCIE*        CLEAR     62  53  72 CALM      29.95S
INDIANAPOLIS   CLEAR     63  53  70 CALM      29.94F

$$
MIZ043>046-050>051-056>058-064>065-071>073-077>080-300400-
SOUTHWEST LOWER MICHIGAN

CITY           SKY/WX    TMP DP  RH WIND       PRES   REMARKS
BATTLE CREEK   CLOUDY    64  58  80 NW12      29.94S HAZE
COLDWATER*     CLEAR     62  59  90 W8        29.93R
HILLSDALE*     PTCLDY    58  57  97 CALM      29.92F
GRAND RAPIDS   CLOUDY    56  55  97 NW12      29.96S
KALAMAZOO      MOCLDY    61  57  87 N9        29.95S
STURGIS*       CLEAR     63  59  88 NW7       29.93R
THREE RIVERS*  FAIR      62  58  88 NW6       29.94S FOG

$$
OHZ001>008-015>018-024>025-300400-
NORTHWEST OHIO

CITY           SKY/WX    TMP DP  RH WIND       PRES   REMARKS
WAUSEON*       FAIR      59  55  88 CALM      29.92S
DEFIANCE       CLEAR     59  55  87 CALM      29.92F
FINDLAY        CLEAR     61  51  70 W3        29.92S
TOLEDO EXPRESS CLEAR     58  55  90 CALM      29.91F
TOLEDO METCALF CLEAR     61  55  81 S3        29.92S
LIMA           CLEAR     59  52  77 CALM      29.94S

$$
AND FOR LAKE MICHIGAN COASTAL AND OPEN LAKE BUOY OBSERVATIONS

STATION/POSITION TEMP    WIND        PRES    VSBY  WAVE
                 AIR SEA DIR/SP/G                  HT/PER
                 (F)     (DEG/KT/KT) (MB)    (MI)  (FT/S)
CALUMET HARBOR    58     350/ 11/ 15 1015.2R
MICHIGAN CITY     58     360/ 22/ 26   N/A
SAINT JOSEPH      59     350/ 16/ 20 1016.3S
SOUTH LAKE BUOY   54 63  360/ 23/ 29 1015.8R         9/ 7
4 MI NW BRIDGMAN  59 63  360/ 19/ 25   N/A           6/ 2
MICHIGAN CITY     59 65   20/ 17/ 23   N/A           6/ 2

$$
&&



USA.gov is the U.S. government's official web portal to all federal, state and local government web resources and services.